Location: DaVinci Observatory
(43.1080°N, 78.6453°W)
Time: 17:56:39
(UTC-05:00)

Vanguard 1 - All Passes

Search period start: 11 December 2017 00:00
Search period end: 21 December 2017 00:00
Orbit: 650 x 3833 km, 34.2° (Epoch: 10 December)

Date Brightness Start Highest point End Pass type
(mag) Time Alt. Az. Time Alt. Az. Time Alt. Az.
11 Dec - 07:20:52 10° S 07:37:03 25° SE 07:49:37 10° E daylight
11 Dec - 09:41:26 10° SW 10:00:43 47° SSE 10:12:30 10° E daylight
11 Dec - 12:07:14 10° WSW 12:23:34 56° S 12:32:24 10° ESE daylight
11 Dec - 14:33:51 10° W 14:44:23 37° SSW 14:50:37 10° SE daylight
12 Dec - 07:39:52 10° SSW 07:58:07 32° SSE 08:11:39 10° E daylight
12 Dec - 10:02:14 10° SW 10:21:54 52° SSE 10:33:34 10° E daylight
12 Dec - 12:28:42 10° W 12:44:35 56° S 12:53:10 10° ESE daylight
12 Dec - 14:55:30 10° W 15:04:58 31° SSW 15:10:52 10° SSE daylight
13 Dec - 05:44:44 10° SSE 05:55:40 15° SE 06:05:35 10° ESE visible
13 Dec - 07:59:30 10° SSW 08:19:12 38° SSE 08:33:16 10° E daylight
13 Dec - 10:23:17 10° WSW 10:43:05 56° S 10:54:33 10° E daylight
13 Dec - 12:50:14 10° W 13:05:33 53° SSW 13:13:52 10° ESE daylight
13 Dec - 15:17:21 10° W 15:25:26 24° SW 15:30:49 10° SSE daylight
14 Dec - 06:01:32 10° S 06:16:31 22° SE 06:29:35 10° E visible
14 Dec - 08:19:38 10° SW 08:40:21 45° SSE 08:54:38 10° E daylight
14 Dec - 10:44:33 10° WSW 11:04:16 59° S 11:15:29 10° E daylight
14 Dec - 13:11:50 10° W 13:26:25 48° SSW 13:34:28 10° SE daylight
14 Dec - 15:39:35 10° W 15:45:44 18° SW 15:50:16 10° S daylight
15 Dec - 06:19:51 10° S 06:37:23 28° SE 06:52:14 10° E visible
15 Dec - 08:40:08 10° SW 09:01:32 51° SSE 09:15:51 10° E daylight
15 Dec - 11:05:59 10° WSW 11:25:26 60° S 11:36:20 10° ESE daylight
15 Dec - 13:33:29 10° W 13:47:10 42° SSW 13:54:55 10° SE daylight
15 Dec - 16:03:01 10° WSW 16:05:56 12° SW 16:08:28 10° SSW daylight
16 Dec - 04:30:57 10° SE 04:35:20 11° SE 04:39:41 10° ESE visible
16 Dec - 06:39:00 10° SSW 06:58:20 35° SE 07:14:15 10° E visible
16 Dec - 09:00:56 10° SW 09:22:46 56° SSE 09:36:57 10° E daylight
16 Dec - 11:27:30 10° W 11:46:33 60° S 11:57:08 10° ESE daylight
16 Dec - 13:55:13 10° W 14:07:46 36° SSW 14:15:12 10° SSE daylight
17 Dec - 04:44:02 10° SSE 04:55:57 17° SE 05:07:29 10° E visible
17 Dec - 06:58:42 10° SSW 07:19:21 41° SSE 07:35:54 10° E visible
17 Dec - 09:22:00 10° WSW 09:44:01 60° S 09:57:59 10° E daylight
17 Dec - 11:49:06 10° W 12:07:36 57° SSW 12:17:53 10° ESE daylight
17 Dec - 14:17:06 10° W 14:28:13 29° SW 14:35:12 10° SSE daylight
18 Dec - 05:01:13 10° S 05:16:35 23° SE 05:31:19 10° E visible
18 Dec - 07:18:52 10° SW 07:40:27 48° SSE 07:57:18 10° E daylight
18 Dec - 09:43:16 10° WSW 10:05:17 63° S 10:18:57 10° E daylight
18 Dec - 12:10:45 10° W 12:28:32 53° SSW 12:38:30 10° SE daylight
18 Dec - 14:39:18 10° W 14:48:31 22° SW 14:54:48 10° S daylight
19 Dec - 05:19:43 10° S 05:37:18 30° SE 05:53:58 10° E visible
19 Dec - 07:39:22 10° SW 08:01:37 53° SSE 08:18:34 10° E daylight
19 Dec - 10:04:40 10° WSW 10:26:33 64° S 10:39:53 10° ESE daylight
19 Dec - 12:32:27 10° W 12:49:21 47° SSW 12:58:59 10° SE daylight
19 Dec - 15:02:10 10° W 15:08:41 16° SW 15:13:39 10° SSW daylight
20 Dec - 03:30:48 10° SE 03:35:42 11° SE 03:40:42 10° ESE visible
20 Dec - 05:38:58 10° SSW 05:58:06 36° SE 06:16:02 10° E visible
20 Dec - 08:00:09 10° SW 08:22:53 58° SSE 08:39:45 10° E daylight
20 Dec - 10:26:11 10° W 10:47:46 63° S 11:00:44 10° ESE daylight
20 Dec - 12:54:14 10° W 13:10:00 40° SSW 13:19:17 10° SSE daylight
